Location: Bowman Observatory
(41.0326°N, 73.6210°W)
Time: 11:20:36
(UTC-04:00)

Cosmos 2298 Rocket - Visible Passes

Search period start: 24 July 2014 00:00
Search period end: 03 August 2014 00:00
Orbit: 777 x 784 km, 74.0° (Epoch: 23 July)

Date Brightness Start Highest point End Pass type
(mag) Time Alt. Az. Time Alt. Az. Time Alt. Az.
24 Jul 6.5 21:57:46 10° WNW 22:00:49 16° W 22:03:50 10° SW visible
25 Jul 6.1 21:23:35 10° NW 21:27:49 25° W 21:32:02 10° SSW visible
26 Jul 5.4 20:49:51 10° NW 20:54:45 39° WSW 20:59:37 10° S visible
28 Jul 6.9 21:28:25 10° WNW 21:29:55 11° W 21:31:24 10° WSW visible
29 Jul 6.6 20:53:23 10° NW 20:56:58 19° W 21:00:31 10° SW visible
